This is the latest recevied weather packets stored in our database for station/object F6ANO-13. If no packets are shown the sender has not sent any weather packets the latest 10 day(s).
| Time | Temp. | Humidity | Pressure | Rain* | Wind** | Luminosity | Snow |
|---|---|---|---|---|---|---|---|
| 1788169738 | 21.11° C | 74% | 1016.5 hPa | 0 mm | - | - | - |
| 1788169318 | 20.56° C | 77% | 1016.6 hPa | 0 mm | - | - | - |
| 1788168895 | 20° C | 78% | 1016.6 hPa | 0 mm | - | - | - |
| 1788168475 | 20° C | 78% | 1016.6 hPa | 0 mm | - | - | - |
| 1788168058 | 19.44° C | 81% | 1016.4 hPa | 0 mm | - | - | - |
| 1788167798 | 19.44° C | 83% | 1016.6 hPa | 0 mm | - | - | - |
| 1788167378 | 18.89° C | 82% | 1016.4 hPa | 0 mm | - | - | - |
| 1788166958 | 19.44° C | 83% | 1016.4 hPa | 0 mm | - | - | - |
| 1788166537 | 18.89° C | 84% | 1016.3 hPa | 0 mm | - | - | - |
| 1788166117 | 18.33° C | 87% | 1016.3 hPa | 0 mm | - | - | - |
| 1788165697 | 18.33° C | 89% | 1016.2 hPa | 0 mm | - | - | - |
| 1788165277 | 17.78° C | 88% | 1016.3 hPa | 0 mm | - | - | - |
| 1788164859 | 17.78° C | 88% | 1016.3 hPa | 0 mm | - | - | - |
| 1788164438 | 17.78° C | 88% | 1016.3 hPa | 0 mm | - | - | - |
| 1788164018 | 18.33° C | 88% | 1016.1 hPa | 0 mm | - | - | - |
| 1788163598 | 18.33° C | 86% | 1016 hPa | 0 mm | - | - | - |
| 1788163177 | 18.89° C | 84% | 1015.9 hPa | 0 mm | - | - | - |
| 1788162757 | 18.33° C | 85% | 1015.9 hPa | 0 mm | - | - | - |
| 1788162337 | 18.33° C | 85% | 1015.8 hPa | 0 mm | - | - | - |
| 1788161917 | 18.33° C | 85% | 1015.8 hPa | 0 mm | - | - | - |
| 1788161497 | 18.33° C | 85% | 1015.8 hPa | 0 mm | - | - | - |
| 1788161077 | 18.33° C | 85% | 1015.8 hPa | 0 mm | - | - | - |
| 1788160656 | 18.33° C | 86% | 1015.8 hPa | 0 mm | - | - | - |
| 1788160236 | 17.78° C | 87% | 1015.8 hPa | 0 mm | - | - | - |
| 1788159818 | 17.78° C | 88% | 1015.6 hPa | 0 mm | - | - | - |
* Rain latest hour (hover to see other rain measurements)
** Current wind speed in m/s (hover to see current wind gust speed)